Honolulu, HI

3:47 PM HST on April 24, 2018 (GMT -1000)
Honolulu International

Weather History for PHNL - March, 2013

Change the Weather History Date:

Sunday, March 24, 2013

  Actual Average Record
Temperature  
Mean Temperature 72 °F 75 °F  
Max Temperature 74 °F 82 °F 86 °F (1983)
Min Temperature 70 °F 68 °F 57 °F (1954)
Degree Days  
Heating Degree Days 0 0  
Month to date heating degree days 0 0  
Since 1 July heating degree days 0 0  
Cooling Degree Days 7 10  
Month to date cooling degree days 197 223  
Year to date cooling degree days 695 705  
Growing Degree Days 22 (Base 50)    
Moisture  
Dew Point 67 °F    
Average Humidity 87    
Maximum Humidity 100    
Minimum Humidity 73    
Precipitation  
Precipitation 0.29 in 0.06 in 2.58 in (1994)
Month to date precipitation 2.48 1.62  
Year to date precipitation 5.55 5.92  
Snow  
Snow 0.00 in - - ()
Month to date snowfall 0.0  
Since 1 July snowfall 0.0  
Snow Depth 0.00 in    
Sea Level Pressure  
Sea Level Pressure 29.99 in    
Wind  
Wind Speed 4 mph (NNE)    
Max Wind Speed 13 mph    
Max Gust Speed 16 mph    
Visibility 10 miles    
Events Rain    
T = Trace of Precipitation, MM = Missing Value Source: NWS Daily Summary

Daily Weather History Graph

Daily Weather History Graph

Search for Another Location

Airport or City:

Astronomy

Mar. 24, 2013 Rise Set
Actual Time 6:31 AM HST 6:44 PM HST
Civil Twilight 6:09 AM HST 7:06 PM HST
Nautical Twilight 5:43 AM HST 7:32 PM HST
Astronomical Twilight 5:17 AM HST 7:58 PM HST
Moon 4:37 PM HST (3/24) 4:31 AM HST (3/24)
Length of Visible Light 12h 56m
Length of Day
12h 12m
Waxing Gibbous, 93% of the Moon is Illuminated
Mar 24
Waxing Gibbous
Mar 26
Full
Apr 2
Last Quarter
Apr 9
New
Apr 18
First Quarter

Hourly Weather History & Observations

Time (HST) Temp. Dew Point Humidity Pressure Visibility Wind Dir Wind Speed Gust Speed Precip Events Conditions
12:53 AM 72.0 °F 64.0 °F 76% 30.00 in 10.0 mi East 4.6 mph - N/A   Overcast
1:53 AM 72.0 °F 64.0 °F 76% 29.99 in 10.0 mi North 5.8 mph - N/A   Overcast
2:53 AM 72.0 °F 64.9 °F 78% 29.98 in 10.0 mi Calm Calm - N/A   Overcast
3:22 AM 71.6 °F 64.4 °F 78% 29.98 in 10.0 mi East 12.7 mph - N/A   Overcast
3:53 AM 71.1 °F 64.0 °F 78% 29.97 in 10.0 mi NNE 4.6 mph - N/A   Overcast
4:53 AM 71.1 °F 64.9 °F 81% 29.96 in 10.0 mi NNE 5.8 mph - N/A   Mostly Cloudy
5:15 AM 71.6 °F 64.4 °F 78% 29.96 in 10.0 mi NNE 3.5 mph - N/A   Mostly Cloudy
5:34 AM 71.6 °F 64.4 °F 78% 29.97 in 10.0 mi NNE 6.9 mph - N/A   Mostly Cloudy
5:53 AM 72.0 °F 64.0 °F 76% 29.97 in 10.0 mi NNW 3.5 mph - N/A   Overcast
6:53 AM 72.0 °F 64.0 °F 76% 29.99 in 10.0 mi North 3.5 mph - N/A   Overcast
7:53 AM 73.0 °F 64.9 °F 76% 30.02 in 10.0 mi ENE 4.6 mph - N/A   Overcast
8:16 AM 71.6 °F 66.2 °F 83% 30.02 in 7.0 mi Calm Calm - 0.00 in Rain Light Rain
8:53 AM 71.1 °F 66.9 °F 87% 30.04 in 10.0 mi NNW 5.8 mph - 0.01 in   Overcast
9:53 AM 70.0 °F 69.1 °F 97% 30.06 in 6.0 mi NNW 6.9 mph - 0.05 in Rain Rain
10:53 AM 70.0 °F - N/A% 30.05 in 10.0 mi NNE 5.8 mph - 0.10 in Rain Light Rain
11:53 AM 71.1 °F - N/A% 30.05 in 8.0 mi Calm Calm - 0.02 in Rain Light Rain
12:53 PM 71.1 °F 71.1 °F 100% 30.03 in 9.0 mi Calm Calm - 0.07 in Rain Light Rain
1:53 PM 72.0 °F 72.0 °F 100% 29.97 in 10.0 mi NNW 8.1 mph - 0.01 in Rain Light Rain
2:37 PM 73.4 °F 69.8 °F 88% 29.97 in 10.0 mi East 11.5 mph - 0.00 in Rain Light Rain
2:53 PM 72.0 °F 69.1 °F 91% 29.97 in 10.0 mi ENE 5.8 mph - 0.00 in Rain Light Rain
3:53 PM 72.0 °F 68.0 °F 87% 29.95 in 10.0 mi North 6.9 mph - 0.02 in Rain Rain
4:00 PM 71.6 °F 68.0 °F 88% 29.94 in 10.0 mi NNE 8.1 mph - 0.01 in Rain Light Rain
4:53 PM 73.0 °F 68.0 °F 84% 29.93 in 10.0 mi NE 5.8 mph - 0.02 in Rain Light Rain
5:53 PM 73.0 °F 68.0 °F 84% 29.94 in 10.0 mi NNE 3.5 mph - 0.00 in   Mostly Cloudy
6:53 PM 72.0 °F 68.0 °F 87% 29.98 in 10.0 mi East 3.5 mph - 0.00 in   Mostly Cloudy
7:53 PM 72.0 °F 66.9 °F 84% 30.00 in 10.0 mi ENE 9.2 mph - N/A   Overcast
8:53 PM 72.0 °F 66.9 °F 84% 30.03 in 10.0 mi NW 5.8 mph - N/A   Mostly Cloudy
9:53 PM 70.0 °F 66.0 °F 87% 30.03 in 10.0 mi NE 5.8 mph - N/A   Scattered Clouds
10:53 PM 70.0 °F 64.9 °F 84% 30.03 in 10.0 mi North 4.6 mph - N/A   Partly Cloudy
11:53 PM 68.0 °F 66.0 °F 93% 30.02 in 10.0 mi NNW 3.5 mph - N/A   Partly Cloudy